Theta_e
311 310 310 310 310 310 310 311 311 311 312 312 312 312 312 312 312 312 313 313 311 315 315 315 315 315 315 317 317 317 312 312 313 311 313 314 313 314 315 315 315 316 317 317 317
310 310 310 310 310 310 311 311 311 311 311 311 312 312 312 312 313 313 313 313 311 314 316 315 315 316 316 316 317 315 311 311 309 309 312 314 314 315 315 316 313 315 317 317 317
310 311 311 311 312 312 312 312 312 312 312 312 312 312 312 312 313 313 315 313 312 313 316 315 315 316 315 316 316 314 314 310 312 312 313 314 313 315 314 313 316 316 317 316 316
312 312 312 312 312 312 312 312 312 312 312 312 312 312 312 312 310 313 313 313 313 313 315 315 315 316 315 314 316 315 315 314 315 315 315 314 314 313 315 317 316 317 317 316 316
311 310 310 310 310 309 309 310 310 310 311 311 312 312 312 312 313 314 313 313 312 313 314 315 315 316 313 313 313 313 313 316 316 315 316 316 314 313 315 316 316 315 315 315 315
310 311 311 312 313 313 313 314 314 313 313 311 310 309 309 310 313 314 313 313 313 313 314 314 314 315 314 313 313 312 313 313 313 314 314 313 314 312 314 314 315 314 315 315 314
315 315 315 315 315 315 315 315 316 316 316 316 315 311 308 310 312 313 314 314 313 313 314 314 314 314 313 311 312 312 311 308 308 311 310 311 311 309 314 314 314 314 315 315 315
314 314 313 313 312 312 311 312 313 313 314 314 314 313 311 314 311 310 312 312 312 313 313 313 313 313 313 312 310 310 308 310 309 308 310 312 311 310 313 313 313 314 314 314 315
317 317 316 316 315 314 313 312 311 310 310 311 313 311 311 313 311 310 309 311 311 312 312 312 312 312 311 308 308 307 309 307 308 308 309 309 310 309 312 311 311 312 313 313 313
319 319 320 320 320 320 320 319 317 312 311 310 310 309 312 313 311 311 311 311 311 311 311 312 311 308 305 307 310 309 307 306 307 309 306 308 309 308 311 311 310 310 310 311 311
321 322 323 323 322 321 321 321 320 315 314 315 312 312 312 310 309 310 312 311 311 310 308 309 307 309 310 307 306 307 306 306 305 306 307 309 309 308 308 308 309 310 310 310 311
324 324 324 324 324 324 322 322 320 316 312 322 322 318 318 312 311 312 311 311 310 308 306 306 307 307 307 306 307 307 308 308 308 307 305 307 309 309 309 309 310 310 310 310 311
323 323 323 323 324 323 323 323 322 314 309 316 315 313 315 313 310 311 311 310 308 306 306 308 309 307 307 307 308 306 306 308 307 306 305 305 308 306 308 307 309 311 310 311 312
325 324 323 322 323 323 323 322 322 316 312 313 309 308 307 308 308 309 309 309 308 308 306 306 307 307 306 307 306 309 306 307 307 307 308 306 310 308 309 308 307 309 310 312 312
322 322 322 321 322 323 323 322 318 317 325 312 307 309 309 307 306 306 309 309 308 307 307 309 307 307 308 308 305 308 307 307 306 306 306 307 307 308 307 310 309 308 310 310 309
321 320 320 320 320 322 321 320 319 318 325 316 307 307 308 307 306 307 308 308 306 306 305 305 306 306 307 306 306 307 308 305 303 305 309 308 308 309 308 309 309 309 313 313 312
316 316 316 317 321 321 321 320 320 323 319 316 307 306 306 307 307 305 306 306 306 307 307 305 305 305 306 307 306 307 307 308 309 308 311 305 307 309 308 308 309 309 310 310 308
312 311 311 313 315 317 317 319 321 320 320 316 314 313 313 308 311 307 306 307 304 304 305 307 315 305 305 307 309 306 308 312 318 311 315 309 313 313 307 309 307 308 309 309 306
309 308 308 309 309 313 316 319 319 316 315 318 316 317 316 310 310 308 306 308 308 305 312 315 313 306 303 305 307 306 308 308 311 310 310 312 311 313 309 308 306 306 304 302 303
306 305 305 306 307 310 314 314 316 315 316 317 319 318 318 316 311 310 312 310 307 305 306 313 317 312 310 305 305 307 307 310 308 315 317 315 312 314 310 308 305 302 301 301 300
299 298 302 305 308 312 312 312 312 314 315 316 318 318 318 319 314 316 316 315 309 310 305 311 314 315 310 307 309 305 306 306 306 312 316 317 315 311 309 302 302 301 299 298 299
297 296 303 309 310 311 311 309 311 311 311 312 314 315 315 315 316 315 315 314 314 313 313 310 313 315 314 311 305 307 311 309 312 314 310 314 315 310 302 300 299 296 295 294 296
301 302 308 310 307 309 309 311 311 310 310 311 312 312 312 312 313 312 312 311 312 312 313 312 312 315 313 311 309 312 312 310 310 311 314 315 315 308 306 299 296 294 293 293 292
299 296 303 308 308 306 306 306 306 307 309 310 310 310 310 311 310 311 312 310 310 310 311 311 310 313 315 313 312 312 310 307 307 307 309 310 307 306 304 297 294 295 293 292 292
296 295 299 300 303 301 306 305 305 305 306 306 306 308 307 308 307 308 308 306 306 304 305 308 310 309 311 308 305 305 303 303 303 304 305 304 303 302 296 293 292 291 294 293 290
295 294 297 296 297 299 300 302 303 303 303 303 303 302 301 303 304 306 302 303 303 298 300 301 303 302 302 301 301 300 298 298 299 300 301 301 301 294 292 291 291 290 291 292 289
293 294 294 293 295 295 295 298 296 297 296 296 295 296 297 299 297 296 296 296 296 297 298 298 300 298 301 299 295 296 297 297 297 296 296 297 294 291 291 291 290 289 290 289 288
Wind_Speed
8 8 9 9 9 9 9 10 10 9 9 10 11 12 12 13 14 16 17 11 9 13 10 8 8 7 6 5 5 5 3 3 5 6 5 2 2 3 3 9 8 10 19 22 21
9 9 10 10 11 11 11 12 12 12 13 13 12 14 15 16 18 21 9 9 10 9 12 11 10 9 5 5 5 4 3 8 6 6 5 4 6 8 4 12 11 16 24 26 26
10 11 12 13 13 14 14 14 14 14 15 15 15 16 17 18 19 1 2 7 0 8 11 11 9 10 6 6 7 7 6 6 8 16 12 7 5 7 4 8 24 18 19 16 20
13 14 15 15 16 16 16 17 17 17 17 17 17 17 18 16 6 1 5 13 9 10 14 13 10 7 5 5 8 3 14 10 5 9 6 5 5 5 14 33 34 34 29 30 30
15 15 16 17 17 18 18 18 18 18 19 19 18 18 18 10 19 22 20 16 11 11 16 16 14 9 5 5 4 4 6 13 22 16 21 20 25 11 26 43 40 35 32 30 26
14 15 15 16 17 18 18 19 20 20 19 19 19 18 18 13 15 10 10 9 9 11 16 17 9 14 3 5 7 3 9 14 13 20 16 9 26 4 27 32 32 29 30 30 27
14 15 16 17 18 19 19 20 22 21 20 20 19 17 21 32 21 19 21 20 16 16 17 19 20 11 4 3 5 4 8 9 8 13 9 7 9 11 32 23 29 33 25 28 25
12 13 14 15 16 18 19 20 22 22 20 19 18 17 17 23 22 23 24 27 22 17 16 16 14 14 9 4 2 2 0 5 2 6 3 10 10 19 27 22 23 23 30 32 35
9 10 11 13 14 15 17 18 19 20 19 16 14 11 10 16 15 17 21 20 16 14 13 9 11 6 5 4 4 2 5 7 10 14 5 7 9 13 16 13 27 37 46 47 49
8 8 10 11 13 15 15 16 15 13 12 8 10 5 15 11 9 9 10 12 9 10 9 8 6 3 2 3 7 8 5 5 6 4 4 5 14 13 36 34 37 38 46 49 40
8 9 10 12 14 16 17 15 7 4 5 8 11 11 15 10 10 11 8 11 10 8 5 3 4 8 18 14 3 1 5 7 7 8 4 17 18 14 24 29 36 42 39 35 38
10 12 13 14 14 15 13 7 9 10 13 18 25 29 32 30 10 14 11 10 8 6 8 3 7 14 3 4 7 9 12 12 10 14 4 10 20 20 21 29 32 38 39 27 35
13 14 15 14 13 10 9 11 15 17 6 12 16 14 17 19 10 12 11 7 4 6 8 9 6 6 7 5 7 5 6 9 11 6 5 7 8 5 8 14 22 35 27 31 30
13 12 11 9 8 4 6 12 15 18 3 6 3 3 2 2 2 5 12 5 2 9 6 7 5 7 4 5 10 9 10 11 5 3 4 4 9 3 8 10 7 20 19 19 17
16 16 12 8 6 6 4 8 19 9 6 2 2 3 1 1 1 6 6 1 3 4 4 6 6 4 4 9 7 9 2 3 3 4 2 3 4 5 2 7 6 8 10 9 10
9 9 11 11 9 9 2 4 14 1 8 5 2 4 2 1 2 3 2 1 1 2 2 6 3 5 8 3 6 3 2 4 4 1 4 10 8 2 5 5 2 8 20 21 13
11 10 7 7 4 5 1 5 1 5 3 3 1 3 1 2 2 3 3 3 2 5 3 3 4 4 3 2 2 3 4 4 4 2 7 3 3 5 7 5 1 6 11 7 12
12 12 11 8 7 9 6 2 8 6 6 3 3 2 5 6 7 9 7 5 7 6 3 4 9 8 4 6 6 7 8 5 6 4 7 3 9 5 8 10 7 3 1 15 30
18 20 20 16 13 8 5 7 5 5 6 3 2 5 4 3 6 3 6 5 7 11 8 4 8 3 5 4 7 3 5 3 2 0 4 6 13 14 9 3 4 14 26 29 30
18 17 20 15 14 15 7 13 5 5 3 1 9 6 5 2 3 5 5 1 3 7 4 2 7 7 3 2 1 5 1 1 0 4 7 9 8 14 8 10 15 16 23 28 29
12 5 5 10 15 12 7 7 5 17 14 4 5 11 8 2 4 2 6 4 6 2 5 3 4 5 6 3 6 1 3 4 2 6 12 12 8 6 8 12 9 7 16 22 28
7 1 6 17 9 6 9 5 4 5 6 4 3 11 12 13 12 10 12 13 13 4 5 8 6 10 20 16 8 9 17 17 13 11 9 15 15 10 12 11 14 11 13 18 19
7 3 9 20 5 8 6 5 6 2 5 4 5 6 3 8 8 10 11 4 5 5 3 2 3 9 6 2 2 2 3 4 5 1 8 10 5 7 1 11 13 10 14 16 20
5 1 3 14 11 4 2 7 6 4 8 12 8 7 8 10 9 11 8 4 3 3 7 3 5 8 9 12 6 11 9 4 5 4 10 8 14 20 19 12 11 8 6 10 15
4 2 3 3 6 1 3 6 1 3 4 4 2 3 2 4 6 6 3 6 3 7 4 2 7 8 12 7 3 3 8 15 16 16 11 19 23 22 3 5 10 14 10 12 14
4 3 3 2 4 2 4 5 16 8 4 10 10 6 3 7 7 16 5 3 2 5 3 3 3 3 4 6 3 9 13 16 18 18 18 21 24 6 2 6 9 14 9 12 18
4 5 2 2 2 3 4 3 2 2 3 7 6 4 3 2 2 3 7 10 7 3 2 2 2 1 7 6 7 10 16 16 14 17 7 13 1 2 3 4 7 12 8 14 23
Wind_Direction
326 327 328 328 328 327 327 326 326 326 324 325 325 324 324 322 318 308 299 281 266 236 230 217 206 198 190 194 179 159 73 211 244 169 246 253 265 227 251 265 244 240 257 276 278
311 312 312 313 313 313 313 313 313 313 312 314 315 315 316 318 316 309 293 281 246 235 224 224 209 197 185 189 187 152 148 220 215 198 222 251 235 272 259 266 257 258 274 275 274
299 300 302 303 303 303 303 303 303 303 304 306 309 311 313 320 323 265 87 19 347 231 220 220 215 201 203 191 195 184 204 212 240 237 252 254 249 240 235 270 268 257 293 281 278
291 294 295 296 297 297 296 296 296 295 295 296 299 302 304 308 298 231 289 308 291 235 218 210 199 193 199 204 204 213 240 229 250 240 251 247 254 212 231 265 287 291 289 283 282
289 290 291 292 293 295 295 294 294 293 292 291 291 292 296 279 265 283 282 281 268 238 223 216 201 200 191 204 197 225 244 245 254 258 265 276 266 246 259 281 290 290 287 284 283
289 290 291 293 295 296 298 297 296 295 294 292 290 287 282 261 277 278 278 270 256 240 227 221 222 226 261 220 190 260 271 275 278 269 258 218 273 226 265 283 290 290 292 289 284
291 293 295 297 298 299 299 297 296 296 295 293 291 284 275 265 271 269 271 271 260 252 235 230 223 191 185 268 256 292 307 310 227 261 224 206 283 231 271 279 284 287 289 302 285
299 301 303 305 305 305 305 301 298 296 293 289 284 275 262 277 272 264 261 259 256 241 236 235 227 229 242 247 274 249 322 304 261 160 231 169 257 273 286 279 271 280 291 295 287
311 317 319 322 323 322 321 314 309 301 294 286 273 247 263 267 269 266 257 254 257 237 223 216 193 195 186 142 10 303 234 222 309 203 143 186 259 265 295 287 283 287 289 288 285
313 320 327 329 330 328 331 325 315 301 295 290 255 245 248 262 269 272 260 232 219 197 167 177 177 146 48 117 236 223 223 246 247 290 192 211 250 276 284 290 283 282 281 281 277
302 309 319 325 330 334 340 346 347 318 322 281 278 247 280 279 273 269 241 194 176 166 168 173 136 201 218 207 98 196 226 244 260 259 306 271 270 269 275 274 275 274 277 278 286
292 301 307 317 325 336 346 28 359 310 298 279 271 256 257 257 258 255 226 182 176 177 125 71 226 225 114 152 229 243 262 267 274 259 200 269 284 276 260 263 262 270 278 290 296
272 289 303 317 317 334 357 3 347 335 271 283 259 264 265 258 241 247 212 209 170 154 194 197 210 185 190 191 242 226 221 248 255 316 253 317 278 240 280 257 269 265 272 289 293
272 278 288 307 312 330 343 354 351 341 325 279 333 345 307 185 212 237 184 225 215 219 183 239 261 193 157 206 204 259 232 253 258 355 251 16 293 186 254 278 264 291 297 300 323
281 279 276 283 290 322 345 16 11 342 297 285 30 356 2 124 2 24 197 293 286 206 155 241 174 176 186 222 146 235 191 220 194 196 1 302 277 250 222 262 277 286 1 10 19
259 277 288 284 278 277 257 321 331 353 249 330 61 2 348 11 33 75 106 204 294 287 269 252 320 187 216 200 185 115 59 36 58 47 280 210 194 287 191 207 309 318 350 355 9
278 278 265 265 256 270 300 300 82 210 285 308 42 48 338 312 49 48 40 350 252 341 310 301 228 277 180 168 86 117 71 313 327 7 239 349 269 245 248 250 289 339 330 12 48
268 267 265 251 245 250 266 229 223 161 219 210 225 168 204 179 245 201 173 236 201 160 336 288 289 181 186 212 193 176 171 170 234 251 284 348 254 257 230 263 19 57 259 23 9
272 269 263 266 250 231 200 234 247 169 189 216 124 231 253 232 210 170 210 231 230 183 208 222 256 277 222 183 167 182 187 195 310 55 285 254 282 289 254 157 43 49 30 25 20
272 270 266 255 228 213 212 244 254 211 109 156 254 209 258 250 196 193 194 177 266 206 99 176 289 245 262 136 242 202 171 92 324 181 234 268 276 247 317 34 34 29 21 14 18
268 245 224 207 188 188 220 221 249 256 254 251 261 271 274 283 212 228 226 251 202 193 157 139 208 275 33 214 205 145 250 241 274 207 245 256 247 255 71 78 73 42 26 15 5
176 207 169 161 177 210 230 191 209 255 323 283 306 258 263 275 275 265 262 259 263 197 202 198 208 256 255 237 230 225 246 233 238 240 236 235 252 3 97 87 76 64 40 31 15
174 216 167 178 204 220 243 241 231 190 183 223 242 222 237 283 290 248 269 356 323 243 257 3 233 274 282 35 51 118 330 13 341 240 242 258 254 336 360 87 39 49 49 33 23
176 132 175 209 233 212 204 262 244 289 243 228 248 268 275 266 253 278 286 294 328 276 262 280 215 266 272 284 293 277 284 282 266 268 283 268 300 307 309 341 23 27 31 25 12
182 196 157 204 255 302 242 271 191 283 274 338 293 271 33 297 316 271 344 357 6 359 348 303 264 267 265 287 340 283 280 274 265 261 261 282 281 275 40 354 337 332 340 352 357
163 134 160 246 278 249 209 253 256 277 249 273 237 306 351 257 274 292 311 225 273 352 357 351 274 325 270 280 278 281 277 265 274 272 261 260 264 61 71 346 326 332 326 333 337
186 181 174 247 173 139 219 215 91 11 58 80 75 352 326 233 178 253 259 258 249 272 302 286 288 287 263 305 323 283 257 266 260 260 249 259 246 211 246 247 281 307 300 322 335